User: anonymous
Location: Caltech
(34.1382°N, 118.1253°W)
Time: 08:57:31
(UTC-07:00)
Language:

UOSAT-12 - Orbit

View from above orbital plane
View from above orbital plane
View from above satellite
View from above satellite

Ground track
Ground track

The orbit data is extracted from the following two-line orbital elements,

1 25693U 99021A   14262.76693119  .00000303  00000-0  58400-4 0  6021
2 25693 064.5573 331.0884 0049734 276.1943 217.9629 14.80036741831915
Epoch (UTC): 19 September 2014 18:24:22
Eccentricity: 0.0049734
inclination: 64.5573°
perigee height: 594 km
apogee height: 664 km
right ascension of ascending node: 331.0884°
argument of perigee: 276.1943°
revolutions per day: 14.80036741
mean anomaly at epoch: 217.9629°
orbit number at epoch: 83191

The dashed part of the orbit path shows where the satellite is in the earth's shadow,  

DLR